Regional Weather Roundup
Issued by NWS

Home | Current Version | Previous Version | Text Only | Print | Product List | Glossary Off
Versions: 1 2 3 4 5 6 7 8 9 10 11 12 13 14 15 16 17 18 19 20 21 22 23 24 25 26 27 28 29 30 31 32 33 34 35 36 37 38 39 40 41 42 43 44 45 46 47 48 49 50

000
ASUS44 KMEG 300600
RWRTN
TENNESSEE HOURLY STATE WEATHER ROUNDUP
NATIONAL WEATHER SERVICE MEMPHIS TN
100 AM CDT SAT APR 30 2016

TNZ002-004-019-021-049-052-054-088>092-300700-
WEST TENNESSEE

CITY           SKY/WX    TMP DP  RH WIND       PRES   REMARKS
MEMPHIS INTL   LGT RAIN  65  62  90 E8        29.83F
NWS MEMPHIS      N/A     63 N/A N/A MISG        N/A
JACKSON        TSTM      63  59  87 W9        29.91R FOG
DYERSBURG      CLOUDY    61  57  88 E6          N/A
UNION CITY     PTCLDY    59  59 100 CALM      29.89S
LEXINGTON      MOCLDY    61  61 100 NW3       29.90R
$$

TNZ008-025-027-028-033-062-065-066-300700-
NORTH MIDDLE TENNESSEE

CITY           SKY/WX    TMP DP  RH WIND       PRES   REMARKS
NASHVILLE      MOCLDY    65  60  84 CALM      29.92F
CLARKSVILLE    CLOUDY    62  58  86 E3        29.92F
COOKEVILLE     PTCLDY    61  57  88 CALM      29.94F
CROSSVILLE     PTCLDY    68  53  58 CALM      29.99F
$$

TNZ061-075-076-078-094-096-097-300700-
SOUTH MIDDLE TENNESSEE

CITY           SKY/WX    TMP DP  RH WIND       PRES   REMARKS
TULLAHOMA      CLEAR     61  59  94 CALM      29.93F
WINCHESTER     CLEAR     66  54  63 SE6       29.92F
MCMINNVILLE    PTCLDY    61  61 100 NE5       29.94F
COLUMBIA         N/A    N/A N/A N/A CALM      29.90S
SHELBYVILLE    CLEAR     63  57  82 NE3       29.92F
$$

TNZ017-018-042-046-047-300700-
NORTHEAST TENNESSEE

CITY           SKY/WX    TMP DP  RH WIND       PRES   REMARKS
TRI CITIES     CLOUDY    60  55  83 CALM      30.03F
$$

TNZ012-013-036-069-073-074-300700-
CENTRAL EAST TENNESSEE

CITY           SKY/WX    TMP DP  RH WIND       PRES   REMARKS
KNOXVILLE      CLOUDY    66  57  72 CALM      29.97F
OAK RIDGE      PTCLDY    66  56  70 CALM      30.00F
$$

TNZ083-085-099-300700-
SOUTHEAST TENNESSEE

CITY           SKY/WX    TMP DP  RH WIND       PRES   REMARKS
CHATTANOOGA    MOCLDY    65  58  78 CALM      29.94F
$$

SKY/WX REPORTED AS FAIR MEANS FEW OR NO CLOUDS BELOW
12 THOUSAND FEET.





USA.gov is the U.S. government's official web portal to all federal, state and local government web resources and services.